AirNav   ProFlight Series 2 Aviation Headset
 
 1177 users online  

2FD9 Advent Health Deland Heliport
De Land, Florida, USA

GOING TO DE LAND?


FAA INFORMATION EFFECTIVE 13 AUGUST 2020

Location

FAA Identifier: 2FD9
Lat/Long: 29-02-40.6700N 081-19-04.2200W
29-02.677833N 081-19.070333W
29.0446306,-81.3178389
(estimated)
Elevation: 78 ft. / 24 m (estimated)
Variation: 03W (1985)
Time zone: UTC -4 (UTC -5 during Standard Time)
Zip code: 32720

Heliport Operations

Heliport use: Private use, MEDICAL.
Activation date: 10/1987
Control tower: no
ARTCC: JACKSONVILLE CENTER
FSS: SAINT PETERSBURG FLIGHT SERVICE STATION
Attendance: CONTINUOUS
Wind indicator: yes
Segmented circle: no
Lights: FOR FLOOD LGTS CALL 904-734-3320.

Heliport Communications

WX AWOS-3 at DED (2.2 nm NE): 119.575 (386-740-5811)
WX ASOS at DAB (16 nm NE): 132.875 (386-257-6444)
WX ASOS at SFB (17 nm S): PHONE 407-321-9384
WX AWOS-3 at OMN (19 nm NE): 118.475 (386-615-7084)
WX AWOS-3 at EVB (19 nm E): 124.625 (386-409-4705)

Nearby radio navigation aids

VOR radial/distance  VOR name  Freq  Var
OMNr215/18.9ORMOND BEACH VORTAC112.6000E
ORLr002/30.1ORLANDO VORTAC112.2000E

Heliport Services

Runway Information

Helipad H1

Dimensions: 112 x 92 ft. / 34 x 28 m
Surface: concrete
Runway edge lights: FLD
Latitude: 29-02.677833N
Longitude: 081-19.070333W
Elevation: 78.0 ft.
Traffic pattern: leftleft

Heliport Ownership and Management from official FAA records

Ownership: Publicly-owned
Owner: WEST VOLUSIA MEMORIAL HOSP
701 W PLYMOUTH AVE
DELAND, FL 32720
Phone 386-943-4810
Manager: FACILITIES MANAGER
701 W PLYMOUTH AVE
DELAND, FL 32720
Phone 386-943-4810
ADDITIONAL CONTACT: STEVE VIOLA

Additional Remarks

A52-H1 RED MKR ON RDO ANT-L; RED MKR ON BLDG PROJECTIONS-L; PLINE MKRS E SIDE.
FOR CD CTC DAYTONA APCH AT 386-226-3939.

Instrument Procedures

There are no published instrument procedures at 2FD9.

Some nearby airports with instrument procedures:

KDED - DeLand Municipal Airport-Sidney H Taylor Field (2 nm NE)
KDAB - Daytona Beach International Airport (16 nm NE)
KSFB - Orlando Sanford International Airport (17 nm S)
KOMN - Ormond Beach Municipal Airport (19 nm NE)
X23 - Umatilla Municipal Airport (19 nm W)
KEVB - New Smyrna Beach Municipal Airport (19 nm E)
 
Loc | Ops | Rwys | IFR | FBO | Links
Com | Nav | Svcs | Stats | Notes
Area around 2FD9 (Advent Health Deland Heliport)
 
Road maps at: MapQuest Bing Google
 
Aerial photo
No photo
 
Sectional chart

 
Airport distance calculator
Flying to Advent Health Deland Heliport? Find the distance to fly.

From to 2FD9

Sunrise and sunset
Times for 14-Aug-2020
 Local
(UTC-4)
 Zulu
(UTC)
Morning civil twilight06:3010:30
Sunrise06:5510:55
Sunset20:0500:05
Evening civil twilight20:2900:29

Current date and time
Zulu (UTC)  14-Aug-2020 23:24:12
Local (UTC-4)  14-Aug-2020 19:24:12
 
METAR
KDED 
2nm NE 
142255Z AUTO 06004KT 10SM -VCTSRA CLR 23/22 A2998 RMK AO2 LTG DSNT N THRU SE P0002 T02280218
KDAB 
16nm NE 
142253Z 00000KT 7SM -TSRA SCT029CB SCT050 SCT070 OVC130 23/22 A2997 RMK AO2 PK WND 26029/2159 WSHFT 2143 LTG DSNT ALQDS RAB01 SLP148 CONS LTGICCG OHD-N-E-S TS OHD-N-E-S MOV E P0083 T02280222 $
KSFB 
18nm S 
142303Z 03009KT 10SM TS CLR 27/22 A2996 RMK AO2 LTG DSNT E-S TSB2257 T02670217
KOMN 
19nm NE 
142250Z 00000KT 5SM TSBR SCT036 BKN050 OVC080 A2998 RMK TS MOV NE LAST
KEVB 
19nm E 
142247Z 10SM BKN030 RMK AWOS OTS.
TAF
KDAB 
16nm NE 
142141Z 1422/1518 VRB06KT P6SM VCTS SCT040CB SCT060 BKN090 TEMPO 1421/1423 VRB15G30KT 3SM TSRA BKN040CB BKN060 FM150100 17004KT P6SM VCSH SCT040 SCT100 BKN250 FM150400 VRB02KT P6SM SCT250 FM151400 23006KT P6SM FEW035 SCT250
KSFB 
18nm S 
142102Z 1421/1518 VRB06KT P6SM VCTS SCT050CB BKN090 BKN110 TEMPO 1421/1422 VRB15G30KT 2SM +TSRA BKN030CB BKN060 FM150000 17004KT P6SM FEW030 SCT250 FM151400 23006KT P6SM FEW035 SCT250
NOTAMs
Click for the latest NOTAMs
NOTAMs are issued by the DoD/FAA and will open in a separate window not controlled by AirNav.

 

 
 

Would you like to see your business listed on this page?

 If your business provides an interesting product or service to pilots, flight crews, aircraft, or users of the Advent Health Deland Heliport, you should consider listing it here.  To start the listing process, click on the button below
 
Add a business
 

Other Pages about Advent Health Deland Heliport

Update a link
 
Copyright © AirNav, LLC. All rights reserved. Privacy Policy  Contact